Terug naar catalogus

DELTA 1 DEB

ActiefSSO
NORAD 21360·DEBRIS·🇺🇸 United States

Gelanceerd Jun 12, 1975 vanaf Vandenberg Space Force Base

Loading…

Volgende Passages (komende 24 uur)

TLE

VersSource: Space-Track

Epoch: Sep 14, 2026, 09:46 UTC

1 21360U 75052CE  26257.40760028 -.00000012  00000-0  63804-4 0  9999
2 21360  99.7879 317.6122 0077067 207.1003 164.1437 13.29445996713554

Volg DELTA 1 DEB in realtime met AllMySat

Download on the App Store